Time,TemperatureF,DewpointF,PressureIn,WindDirection,WindDirectionDegrees,WindSpeedMPH,WindSpeedGustMPH,Humidity,HourlyPrecipIn,Conditions,Clouds,dailyrainin,SolarRadiationWatts/m^2,SoftwareType,DateUTC
2013-01-29 00:07:00,32.7,31.0,29.50,East,101,0.0,0.0,94,0.00,,,0.00,0,weatherlink.com 1.10,2013-01-29 05:07:00,
2013-01-29 00:22:00,32.7,31.0,29.50,East,101,0.0,0.0,94,0.00,,,0.00,0,weatherlink.com 1.10,2013-01-29 05:22:00,
2013-01-29 00:37:00,32.7,31.0,29.50,East,101,0.0,0.0,94,0.00,,,0.00,0,weatherlink.com 1.10,2013-01-29 05:37:00,
2013-01-29 00:52:00,32.7,31.0,29.49,East,101,0.0,0.0,94,0.00,,,0.00,0,weatherlink.com 1.10,2013-01-29 05:52:00,
2013-01-29 01:07:00,32.8,31.0,29.49,East,101,0.0,0.0,94,0.00,,,0.00,0,weatherlink.com 1.10,2013-01-29 06:07:00,
2013-01-29 01:22:00,32.8,31.0,29.49,East,101,0.0,0.0,94,0.00,,,0.00,0,weatherlink.com 1.10,2013-01-29 06:22:00,
2013-01-29 01:37:00,32.8,31.0,29.50,East,101,0.0,0.0,94,0.00,,,0.00,0,weatherlink.com 1.10,2013-01-29 06:37:00,
2013-01-29 01:52:00,32.9,31.0,29.50,East,101,0.0,0.0,94,0.00,,,0.00,0,weatherlink.com 1.10,2013-01-29 06:52:00,
2013-01-29 02:07:00,32.9,31.0,29.51,East,101,0.0,0.0,94,0.00,,,0.00,0,weatherlink.com 1.10,2013-01-29 07:07:00,
2013-01-29 02:22:00,33.0,32.0,29.51,East,101,0.0,0.0,94,0.00,,,0.00,0,weatherlink.com 1.10,2013-01-29 07:22:00,
2013-01-29 02:37:00,33.1,32.0,29.52,East,101,0.0,0.0,94,0.00,,,0.00,0,weatherlink.com 1.10,2013-01-29 07:37:00,
2013-01-29 02:52:00,33.2,32.0,29.52,East,101,0.0,0.0,94,0.00,,,0.00,0,weatherlink.com 1.10,2013-01-29 07:52:00,
2013-01-29 03:07:00,33.4,32.0,29.52,East,101,0.0,0.0,94,0.00,,,0.00,0,weatherlink.com 1.10,2013-01-29 08:07:00,
2013-01-29 03:21:00,33.8,32.0,29.52,East,101,0.0,2.0,94,0.00,,,0.00,0,weatherlink.com 1.10,2013-01-29 08:21:00,
2013-01-29 03:37:00,34.3,33.0,29.52,East,101,0.0,2.0,94,0.00,,,0.00,0,weatherlink.com 1.10,2013-01-29 08:37:00,
2013-01-29 03:52:00,34.1,33.0,29.52,East,101,0.0,0.0,94,0.00,,,0.00,0,weatherlink.com 1.10,2013-01-29 08:52:00,
2013-01-29 04:07:00,34.6,33.0,29.52,East,101,2.0,2.0,94,0.00,,,0.00,0,weatherlink.com 1.10,2013-01-29 09:07:00,
2013-01-29 04:22:00,36.5,35.0,29.53,East,99,0.0,3.0,95,0.00,,,0.00,0,weatherlink.com 1.10,2013-01-29 09:22:00,
2013-01-29 04:37:00,36.9,36.0,29.53,WNW,288,0.0,4.0,95,0.00,,,0.00,0,weatherlink.com 1.10,2013-01-29 09:37:00,
2013-01-29 04:52:00,37.1,36.0,29.54,West,281,0.0,3.0,95,0.00,,,0.00,0,weatherlink.com 1.10,2013-01-29 09:52:00,
2013-01-29 05:07:00,37.6,36.0,29.54,West,281,1.0,3.0,95,0.00,,,0.00,0,weatherlink.com 1.10,2013-01-29 10:07:00,
2013-01-29 05:22:00,37.7,36.0,29.55,WNW,290,3.0,4.0,95,0.00,,,0.00,0,weatherlink.com 1.10,2013-01-29 10:22:00,
2013-01-29 05:37:00,37.4,36.0,29.56,WNW,284,2.0,4.0,94,0.00,,,0.00,0,weatherlink.com 1.10,2013-01-29 10:37:00,
2013-01-29 05:52:00,37.2,36.0,29.56,WNW,287,0.0,4.0,94,0.00,,,0.00,0,weatherlink.com 1.10,2013-01-29 10:52:00,
2013-01-29 06:07:00,37.3,36.0,29.56,WNW,284,1.0,4.0,94,0.00,,,0.00,0,weatherlink.com 1.10,2013-01-29 11:07:00,
2013-01-29 06:22:00,37.6,36.0,29.57,WNW,285,1.0,4.0,94,0.00,,,0.00,0,weatherlink.com 1.10,2013-01-29 11:22:00,
2013-01-29 06:37:00,37.8,37.0,29.58,WNW,284,2.0,4.0,95,0.00,,,0.00,0,weatherlink.com 1.10,2013-01-29 11:37:00,
2013-01-29 06:52:00,38.1,37.0,29.58,West,281,2.0,3.0,94,0.00,,,0.00,0,weatherlink.com 1.10,2013-01-29 11:52:00,
2013-01-29 07:07:00,38.3,37.0,29.59,WNW,283,0.0,4.0,95,0.00,,,0.00,0,weatherlink.com 1.10,2013-01-29 12:07:00,
2013-01-29 07:22:00,38.4,37.0,29.60,WNW,282,0.0,3.0,94,0.00,,,0.00,5,weatherlink.com 1.10,2013-01-29 12:22:00,
2013-01-29 07:37:00,38.9,38.0,29.60,WNW,282,0.0,3.0,95,0.00,,,0.00,16,weatherlink.com 1.10,2013-01-29 12:37:00,
2013-01-29 07:52:00,39.0,38.0,29.61,WNW,290,0.0,3.0,94,0.00,,,0.00,35,weatherlink.com 1.10,2013-01-29 12:52:00,
2013-01-29 08:08:00,39.3,38.0,29.60,WNW,287,1.0,3.0,94,0.00,,,0.00,46,weatherlink.com 1.10,2013-01-29 13:08:00,
2013-01-29 08:22:00,39.7,38.0,29.61,WNW,287,0.0,2.0,94,0.00,,,0.00,69,weatherlink.com 1.10,2013-01-29 13:22:00,
2013-01-29 08:37:00,39.1,37.0,29.61,WNW,286,0.0,2.0,93,0.00,,,0.00,158,weatherlink.com 1.10,2013-01-29 13:37:00,
2013-01-29 08:52:00,40.4,39.0,29.61,West,281,0.0,3.0,93,0.00,,,0.00,163,weatherlink.com 1.10,2013-01-29 13:52:00,
2013-01-29 09:08:00,41.5,39.0,29.61,West,281,0.0,1.0,92,0.00,,,0.00,63,weatherlink.com 1.10,2013-01-29 14:08:00,
2013-01-29 09:23:00,42.9,41.0,29.63,West,280,0.0,2.0,91,0.00,,,0.00,294,weatherlink.com 1.10,2013-01-29 14:23:00,
2013-01-29 09:38:00,42.6,39.0,29.63,West,265,0.0,1.0,88,0.00,,,0.00,84,weatherlink.com 1.10,2013-01-29 14:38:00,
2013-01-29 09:53:00,38.7,36.0,29.63,ESE,113,3.0,4.0,90,0.00,,,0.00,285,weatherlink.com 1.10,2013-01-29 14:53:00,
2013-01-29 10:08:00,37.2,35.0,29.64,South,178,2.0,3.0,92,0.00,,,0.00,199,weatherlink.com 1.10,2013-01-29 15:08:00,
2013-01-29 10:23:00,37.0,35.0,29.64,East,80,0.0,2.0,93,0.00,,,0.00,153,weatherlink.com 1.10,2013-01-29 15:23:00,
2013-01-29 10:38:00,36.2,34.0,29.65,SE,142,0.0,3.0,93,0.00,,,0.00,156,weatherlink.com 1.10,2013-01-29 15:38:00,
2013-01-29 10:53:00,36.1,35.0,29.65,East,86,2.0,4.0,94,0.00,,,0.00,105,weatherlink.com 1.10,2013-01-29 15:53:00,
2013-01-29 11:08:00,36.1,35.0,29.64,SE,138,0.0,3.0,94,0.00,,,0.00,186,weatherlink.com 1.10,2013-01-29 16:08:00,
2013-01-29 11:23:00,35.9,34.0,29.64,SSE,150,0.0,4.0,94,0.00,,,0.00,172,weatherlink.com 1.10,2013-01-29 16:23:00,
2013-01-29 11:38:00,36.1,35.0,29.64,South,171,2.0,4.0,95,0.00,,,0.00,158,weatherlink.com 1.10,2013-01-29 16:38:00,
2013-01-29 11:53:00,36.9,36.0,29.63,ESE,118,0.0,3.0,95,0.00,,,0.00,229,weatherlink.com 1.10,2013-01-29 16:53:00,
2013-01-29 12:08:00,37.9,36.0,29.62,ESE,103,0.0,5.0,93,0.00,,,0.00,232,weatherlink.com 1.10,2013-01-29 17:08:00,
2013-01-29 12:22:00,38.1,36.0,29.62,East,80,0.0,4.0,91,0.00,,,0.00,408,weatherlink.com 1.10,2013-01-29 17:22:00,
2013-01-29 12:37:00,38.8,36.0,29.62,ESE,123,0.0,4.0,90,0.00,,,0.00,199,weatherlink.com 1.10,2013-01-29 17:37:00,
2013-01-29 12:53:00,39.7,37.0,29.62,ENE,76,1.0,4.0,89,0.00,,,0.00,276,weatherlink.com 1.10,2013-01-29 17:53:00,
2013-01-29 13:07:00,39.7,37.0,29.61,SSE,154,1.0,3.0,88,0.00,,,0.00,206,weatherlink.com 1.10,2013-01-29 18:07:00,
2013-01-29 13:23:00,39.1,36.0,29.61,ENE,66,2.0,5.0,88,0.00,,,0.00,183,weatherlink.com 1.10,2013-01-29 18:23:00,
2013-01-29 13:38:00,39.0,36.0,29.61,SSE,161,1.0,5.0,89,0.00,,,0.00,162,weatherlink.com 1.10,2013-01-29 18:38:00,
2013-01-29 13:53:00,38.7,36.0,29.61,ESE,119,1.0,4.0,89,0.00,,,0.00,127,weatherlink.com 1.10,2013-01-29 18:53:00,
2013-01-29 14:08:00,38.5,36.0,29.61,East,91,0.0,5.0,89,0.00,,,0.00,102,weatherlink.com 1.10,2013-01-29 19:08:00,
2013-01-29 14:23:00,37.9,35.0,29.61,ESE,104,0.0,6.0,89,0.00,,,0.00,86,weatherlink.com 1.10,2013-01-29 19:23:00,
2013-01-29 14:38:00,37.3,35.0,29.62,SSE,162,1.0,5.0,90,0.00,,,0.00,77,weatherlink.com 1.10,2013-01-29 19:38:00,
2013-01-29 14:53:00,37.0,35.0,29.62,NNE,33,0.0,3.0,91,0.00,,,0.00,69,weatherlink.com 1.10,2013-01-29 19:53:00,
2013-01-29 15:08:00,37.0,35.0,29.62,ENE,65,0.0,3.0,91,0.00,,,0.00,69,weatherlink.com 1.10,2013-01-29 20:08:00,
2013-01-29 15:23:00,37.1,35.0,29.61,ENE,64,2.0,5.0,91,0.00,,,0.00,42,weatherlink.com 1.10,2013-01-29 20:23:00,
2013-01-29 15:38:00,37.1,35.0,29.61,East,85,0.0,5.0,91,0.00,,,0.00,40,weatherlink.com 1.10,2013-01-29 20:38:00,
2013-01-29 15:54:00,37.1,35.0,29.62,NE,47,0.0,2.0,91,0.00,,,0.00,30,weatherlink.com 1.10,2013-01-29 20:54:00,
2013-01-29 16:08:00,37.2,35.0,29.62,SSW,203,0.0,4.0,91,0.00,,,0.00,12,weatherlink.com 1.10,2013-01-29 21:08:00,
2013-01-29 16:23:00,37.1,35.0,29.63,SE,137,0.0,2.0,91,0.00,,,0.00,12,weatherlink.com 1.10,2013-01-29 21:23:00,
2013-01-29 16:38:00,36.6,34.0,29.63,SSE,152,1.0,3.0,91,0.00,,,0.00,9,weatherlink.com 1.10,2013-01-29 21:38:00,
2013-01-29 16:53:00,36.4,34.0,29.65,ENE,74,0.0,2.0,91,0.00,,,0.00,0,weatherlink.com 1.10,2013-01-29 21:53:00,
2013-01-29 17:08:00,36.2,34.0,29.65,ESE,111,2.0,4.0,91,0.00,,,0.00,0,weatherlink.com 1.10,2013-01-29 22:08:00,
2013-01-29 17:23:00,35.9,34.0,29.65,ENE,78,0.0,3.0,91,0.00,,,0.00,0,weatherlink.com 1.10,2013-01-29 22:23:00,
2013-01-29 17:38:00,35.8,34.0,29.65,NE,48,1.0,3.0,91,0.00,,,0.00,0,weatherlink.com 1.10,2013-01-29 22:38:00,
2013-01-29 17:53:00,35.4,33.0,29.65,ENE,68,0.0,3.0,92,0.00,,,0.00,0,weatherlink.com 1.10,2013-01-29 22:53:00,
2013-01-29 18:08:00,35.1,33.0,29.63,SE,127,0.0,5.0,93,0.02,,,0.00,0,weatherlink.com 1.10,2013-01-29 23:08:00,
2013-01-29 18:24:00,35.3,34.0,29.63,SSE,157,2.0,7.0,93,0.03,,,0.01,0,weatherlink.com 1.10,2013-01-29 23:24:00,
2013-01-29 18:38:00,35.1,33.0,29.63,East,86,1.0,4.0,93,0.05,,,0.03,0,weatherlink.com 1.10,2013-01-29 23:38:00,
2013-01-29 18:53:00,35.1,34.0,29.62,SSE,160,0.0,2.0,94,0.05,,,0.03,0,weatherlink.com 1.10,2013-01-29 23:53:00,
2013-01-29 19:09:00,35.3,34.0,29.63,East,95,0.0,3.0,94,0.03,,,0.03,0,weatherlink.com 1.10,2013-01-30 00:09:00,
2013-01-29 19:24:00,35.4,34.0,29.64,SSE,151,0.0,1.0,94,0.02,,,0.03,0,weatherlink.com 1.10,2013-01-30 00:24:00,
2013-01-29 19:38:00,35.4,34.0,29.64,NE,38,0.0,0.0,94,0.00,,,0.03,0,weatherlink.com 1.10,2013-01-30 00:38:00,
2013-01-29 19:53:00,35.2,34.0,29.63,NE,39,0.0,1.0,94,0.00,,,0.03,0,weatherlink.com 1.10,2013-01-30 00:53:00,
2013-01-29 20:08:00,35.6,34.0,29.64,ESE,113,0.0,2.0,94,0.01,,,0.04,0,weatherlink.com 1.10,2013-01-30 01:08:00,
2013-01-29 20:24:00,35.7,34.0,29.64,SE,130,0.0,2.0,94,0.01,,,0.04,0,weatherlink.com 1.10,2013-01-30 01:24:00,
2013-01-29 20:38:00,35.6,34.0,29.63,SE,133,0.0,1.0,94,0.01,,,0.04,0,weatherlink.com 1.10,2013-01-30 01:38:00,
2013-01-29 20:54:00,35.3,34.0,29.63,SE,133,0.0,1.0,95,0.01,,,0.04,0,weatherlink.com 1.10,2013-01-30 01:54:00,
2013-01-29 21:08:00,35.7,34.0,29.63,SE,129,0.0,2.0,95,0.00,,,0.04,0,weatherlink.com 1.10,2013-01-30 02:08:00,
2013-01-29 21:22:00,35.6,34.0,29.62,NE,49,0.0,2.0,95,0.00,,,0.04,0,weatherlink.com 1.10,2013-01-30 02:22:00,
2013-01-29 21:37:00,35.7,34.0,29.62,ESE,109,0.0,2.0,95,0.00,,,0.04,0,weatherlink.com 1.10,2013-01-30 02:37:00,
2013-01-29 21:52:00,35.9,35.0,29.62,South,169,0.0,2.0,95,0.00,,,0.04,0,weatherlink.com 1.10,2013-01-30 02:52:00,
2013-01-29 22:07:00,36.1,35.0,29.61,ENE,69,0.0,2.0,95,0.00,,,0.04,0,weatherlink.com 1.10,2013-01-30 03:07:00,
2013-01-29 22:23:00,35.9,35.0,29.61,East,82,0.0,0.0,95,0.00,,,0.04,0,weatherlink.com 1.10,2013-01-30 03:23:00,
2013-01-29 22:37:00,36.0,35.0,29.62,ENE,72,0.0,0.0,95,0.00,,,0.04,0,weatherlink.com 1.10,2013-01-30 03:37:00,
2013-01-29 22:53:00,36.0,35.0,29.61,ESE,103,0.0,0.0,95,0.00,,,0.04,0,weatherlink.com 1.10,2013-01-30 03:53:00,
2013-01-29 23:08:00,36.0,35.0,29.61,ENE,71,0.0,1.0,95,0.00,,,0.04,0,weatherlink.com 1.10,2013-01-30 04:08:00,
2013-01-29 23:23:00,36.1,35.0,29.61,ESE,104,0.0,3.0,95,0.00,,,0.04,0,weatherlink.com 1.10,2013-01-30 04:23:00,
2013-01-29 23:38:00,35.9,35.0,29.61,East,97,0.0,1.0,95,0.00,,,0.04,0,weatherlink.com 1.10,2013-01-30 04:38:00,
2013-01-29 23:53:00,35.9,35.0,29.61,ESE,102,0.0,2.0,95,0.00,,,0.04,0,weatherlink.com 1.10,2013-01-30 04:53:00,